Diboll, TX

1:31 PM CST on February 25, 2017 (GMT -0600)
Angelina County

Weather History for KLFK - May, 2013

Change the Weather History Date:

Wednesday, May 15, 2013

  Actual Average Record
Temperature  
Mean Temperature 69 °F 74 °F  
Max Temperature 74 °F 85 °F 94 °F (1911)
Min Temperature 63 °F 64 °F 45 °F (1907)
Degree Days  
Heating Degree Days 0 0  
Month to date heating degree days 25 1  
Since 1 July heating degree days 1615 1914  
Cooling Degree Days 4 9  
Month to date cooling degree days 62 114  
Year to date cooling degree days 263 290  
Growing Degree Days 18 (Base 50)    
Moisture  
Dew Point 64 °F    
Average Humidity 83    
Maximum Humidity 93    
Minimum Humidity 73    
Precipitation  
Precipitation 0.43 in 0.15 in 3.01 in (1980)
Month to date precipitation 1.48 2.14  
Year to date precipitation 13.06 17.02  
Snow  
Snow 0.00 in - - ()
Month to date snowfall 0.0  
Since 1 July snowfall 0.0  
Snow Depth 0.00 in    
Sea Level Pressure  
Sea Level Pressure 30.07 in    
Wind  
Wind Speed 8 mph (SSE)    
Max Wind Speed 17 mph    
Max Gust Speed 23 mph    
Visibility 7 miles    
Events Fog , Rain    
T = Trace of Precipitation, MM = Missing Value Source: NWS Daily Summary

Daily Weather History Graph

Daily Weather History Graph

Search for Another Location

Airport or City:

Trip Planner

Search our weather history database for the weather conditions in past years. The results will help you decide how hot, cold, wet, or windy it might be!

Date:

Astronomy

May. 15, 2013 Rise Set
Actual Time 6:23 AM CDT 8:08 PM CDT
Civil Twilight 5:56 AM CDT 8:34 PM CDT
Nautical Twilight 5:24 AM CDT 9:06 PM CDT
Astronomical Twilight 4:50 AM CDT 9:40 PM CDT
Moon 10:56 AM CDT (5/15) No Moon Set
Length of Visible Light 14h 38m
Length of Day
13h 45m
Waxing Crescent, 27% of the Moon is Illuminated
May 15
Waxing Crescent
May 17
First Quarter
May 24
Full
May 31
Last Quarter
Jun 8
New

Hourly Weather History & Observations

Time (CDT) Temp. Dew Point Humidity Pressure Visibility Wind Dir Wind Speed Gust Speed Precip Events Conditions
12:53 AM 64.9 °F 59.0 °F 81% 30.14 in 10.0 mi South 5.8 mph - N/A   Clear
1:48 AM 64.4 °F 60.8 °F 88% 30.14 in 10.0 mi SSE 4.6 mph - N/A   Mostly Cloudy
1:53 AM 64.0 °F 60.1 °F 87% 30.13 in 10.0 mi SSE 5.8 mph - N/A   Mostly Cloudy
2:02 AM 64.4 °F 60.8 °F 88% 30.14 in 10.0 mi SSE 6.9 mph - N/A   Overcast
2:53 AM 64.9 °F 62.1 °F 90% 30.12 in 10.0 mi South 6.9 mph - N/A   Mostly Cloudy
3:53 AM 66.0 °F 63.0 °F 90% 30.11 in 9.0 mi SSE 3.5 mph - N/A   Overcast
4:53 AM 64.9 °F 63.0 °F 93% 30.10 in 7.0 mi ESE 3.5 mph - N/A   Overcast
5:53 AM 66.0 °F 64.0 °F 93% 30.10 in 4.0 mi SE 4.6 mph - N/A   Overcast
6:06 AM 66.2 °F 64.4 °F 94% 30.11 in 2.0 mi ESE 3.5 mph - N/A   Overcast
6:17 AM 64.4 °F 64.4 °F 100% 30.12 in 1.5 mi Calm Calm - N/A   Overcast
6:36 AM 64.4 °F 64.4 °F 100% 30.12 in 0.2 mi SE 3.5 mph - N/A Fog Fog
6:53 AM 66.0 °F 64.0 °F 93% 30.11 in 0.2 mi SE 4.6 mph - N/A Fog Fog
7:18 AM 66.2 °F 64.4 °F 94% 30.12 in 0.5 mi SE 6.9 mph - N/A Fog Fog
7:40 AM 66.2 °F 64.4 °F 94% 30.13 in 1.5 mi SSE 6.9 mph - N/A   Overcast
7:49 AM 66.2 °F 64.4 °F 94% 30.14 in 3.0 mi South 5.8 mph - N/A   Overcast
7:50 AM 66.0 °F 64.9 °F 96% 30.13 in 3.0 mi South 4.6 mph - N/A   Overcast
8:51 AM 69.8 °F 64.4 °F 83% 30.13 in 10.0 mi South 4.6 mph - N/A   Overcast
8:53 AM 69.1 °F 64.9 °F 87% 30.12 in 10.0 mi South 5.8 mph - N/A   Overcast
9:32 AM 71.6 °F 64.4 °F 78% 30.12 in 10.0 mi South 6.9 mph - N/A   Overcast
9:53 AM 73.0 °F 66.0 °F 79% 30.12 in 10.0 mi South 8.1 mph 17.3 mph N/A   Overcast
10:11 AM 73.4 °F 66.2 °F 78% 30.11 in 10.0 mi South 9.2 mph - N/A   Overcast
10:53 AM 73.9 °F 64.9 °F 73% 30.10 in 10.0 mi South 10.4 mph - N/A   Scattered Clouds
11:53 AM 71.1 °F 64.9 °F 81% 30.11 in 7.0 mi South 12.7 mph 18.4 mph 0.01 in Rain Light Rain
12:13 PM 69.8 °F 66.2 °F 88% 30.11 in 2.0 mi SSE 12.7 mph - 0.09 in Rain Heavy Rain
12:39 PM 69.8 °F 66.2 °F 88% 30.10 in 5.0 mi SE 5.8 mph - 0.17 in Rain Light Rain
12:53 PM 69.1 °F 66.9 °F 93% 30.09 in 4.0 mi SSE 8.1 mph - 0.20 in Rain Rain
1:53 PM 69.1 °F 66.0 °F 90% 30.06 in 8.0 mi SE 10.4 mph - 0.06 in Rain Light Rain
4:53 PM 71.1 °F 66.0 °F 84% 29.98 in 10.0 mi SE 10.4 mph - N/A   Overcast
5:53 PM 70.0 °F 63.0 °F 78% 29.96 in 5.0 mi SE 11.5 mph - 0.03 in Rain Light Rain
6:03 PM 68.0 °F 64.4 °F 88% 29.96 in 2.5 mi SE 13.8 mph - 0.05 in Rain Rain
6:10 PM 69.8 °F 64.4 °F 83% 29.96 in 7.0 mi SE 10.4 mph - 0.06 in Rain Light Rain
6:53 PM 71.1 °F 66.0 °F 84% 29.92 in 10.0 mi SE 13.8 mph - 0.06 in   Clear
7:53 PM 70.0 °F 64.9 °F 84% 29.92 in 10.0 mi SE 9.2 mph - N/A   Clear
8:53 PM 68.0 °F 64.9 °F 90% 29.93 in 10.0 mi SE 4.6 mph - N/A   Scattered Clouds
9:53 PM 66.9 °F 64.0 °F 90% 29.92 in 10.0 mi SE 8.1 mph - N/A   Clear
10:53 PM 68.0 °F 64.0 °F 87% 29.94 in 10.0 mi SSE 5.8 mph - N/A   Overcast
11:03 PM 68.0 °F 64.4 °F 88% 29.94 in 10.0 mi SE 5.8 mph - N/A   Overcast
11:53 PM 68.0 °F 64.9 °F 90% 29.91 in 10.0 mi SSE 11.5 mph - N/A   Overcast